Find Starlink 37325

NORAD ID: 68749 Int'l Des: 2026-082 Owner: SPXS Country: US Constellation: starlink operational
LEOCIRCULARRETROGRADE

实时位置

正在加载3D地球...

关于 Starlink 37325

正在加载描述...

即将过境

Passes for default location (London). Set your location on the main map for personalized predictions.

高度历史

Loading altitude history...

两行轨道根数

1 68749C 26082W 26105.45812500 .00373590 00000+0 43409-3 0 1059
2 68749 97.2877 326.8848 0010874 268.4454 345.0400 16.08516432 11
Epoch: Apr 15, 2026 • Age: 18 hours

当前状态

高度 253.4 km
速度 7.75 km/s
星下点 -6.98°S, 44.42°E
发射日期 Apr 15, 2026
运行时间 1 days
类型 internet

技术详情

分类 Payload
质量 575.00 kg
干质量 530.00 kg
总质量 575.00 kg
长度 0.30 m
直径 4.10 m
跨度 29.00 m
形状 Box + pan
制造商 SPXS
平台类型 Starlink V2MO
阶段状态 In Orbit
所有者/国家 SPXS/US

Most Searched